TimeMDT,TemperatureF,Dew PointF,Humidity,Sea Level PressureIn,VisibilityMPH,Wind Direction,Wind SpeedMPH,Gust SpeedMPH,PrecipitationIn,Events,Conditions,WindDirDegrees,DateUTC
12:15 AM,82.4,33.8,17,29.96,10.0,Calm,Calm,-,N/A,,Clear,0,2013-08-08 06:15:00
12:35 AM,80.6,32.0,17,29.96,10.0,South,3.5,-,N/A,,Clear,190,2013-08-08 06:35:00
12:55 AM,80.6,32.0,17,29.96,10.0,SE,5.8,-,N/A,,Clear,140,2013-08-08 06:55:00
1:15 AM,77.0,30.2,18,29.96,10.0,ESE,8.1,-,N/A,,Clear,120,2013-08-08 07:15:00
1:35 AM,78.8,32.0,18,29.96,10.0,ESE,9.2,-,N/A,,Clear,120,2013-08-08 07:35:00
1:55 AM,75.2,32.0,21,29.96,10.0,ESE,9.2,-,N/A,,Clear,110,2013-08-08 07:55:00
2:15 AM,75.2,32.0,21,29.96,10.0,ESE,8.1,-,N/A,,Clear,120,2013-08-08 08:15:00
2:35 AM,75.2,32.0,21,29.96,10.0,ESE,4.6,-,N/A,,Clear,120,2013-08-08 08:35:00
2:55 AM,75.2,32.0,21,29.95,10.0,ESE,8.1,-,N/A,,Clear,120,2013-08-08 08:55:00
3:15 AM,75.2,32.0,21,29.96,10.0,ESE,8.1,-,N/A,,Clear,120,2013-08-08 09:15:00
3:35 AM,73.4,32.0,22,29.96,10.0,ESE,6.9,-,N/A,,Clear,120,2013-08-08 09:35:00
3:55 AM,73.4,33.8,23,29.96,10.0,ESE,8.1,-,N/A,,Clear,110,2013-08-08 09:55:00
4:15 AM,73.4,33.8,23,29.96,10.0,East,5.8,-,N/A,,Clear,100,2013-08-08 10:15:00
4:35 AM,73.4,33.8,23,29.96,10.0,East,3.5,-,N/A,,Clear,100,2013-08-08 10:35:00
4:55 AM,73.4,33.8,23,29.96,10.0,ESE,8.1,-,N/A,,Clear,110,2013-08-08 10:55:00
5:15 AM,73.4,33.8,23,29.96,10.0,ESE,10.4,-,N/A,,Clear,110,2013-08-08 11:15:00
5:35 AM,71.6,33.8,25,29.96,10.0,East,10.4,-,N/A,,Clear,100,2013-08-08 11:35:00
5:55 AM,71.6,35.6,27,29.97,10.0,ESE,11.5,-,N/A,,Clear,110,2013-08-08 11:55:00
6:15 AM,71.6,35.6,27,29.97,10.0,ESE,10.4,-,N/A,,Clear,110,2013-08-08 12:15:00
6:35 AM,71.6,35.6,27,29.98,10.0,ESE,9.2,-,N/A,,Clear,120,2013-08-08 12:35:00
6:55 AM,71.6,35.6,27,29.99,10.0,ESE,9.2,-,N/A,,Clear,120,2013-08-08 12:55:00
7:15 AM,69.8,33.8,27,29.99,10.0,SE,6.9,-,N/A,,Clear,140,2013-08-08 13:15:00
7:35 AM,71.6,32.0,23,30.00,10.0,South,3.5,-,N/A,,Clear,190,2013-08-08 13:35:00
7:55 AM,71.6,32.0,23,30.00,10.0,ESE,4.6,-,N/A,,Clear,120,2013-08-08 13:55:00
8:15 AM,75.2,35.6,24,30.01,10.0,East,5.8,-,N/A,,Clear,90,2013-08-08 14:15:00
8:35 AM,77.0,37.4,24,30.01,10.0,Calm,Calm,-,N/A,,Clear,0,2013-08-08 14:35:00
8:55 AM,78.8,41.0,26,30.01,10.0,NNE,5.8,-,N/A,,Clear,20,2013-08-08 14:55:00
9:15 AM,80.6,41.0,24,30.01,10.0,NE,5.8,-,N/A,,Clear,50,2013-08-08 15:15:00
9:35 AM,80.6,41.0,24,30.01,10.0,Calm,Calm,-,N/A,,Clear,0,2013-08-08 15:35:00
9:55 AM,82.4,41.0,23,30.01,10.0,Calm,Calm,-,N/A,,Clear,0,2013-08-08 15:55:00
10:15 AM,84.2,42.8,23,30.00,10.0,ENE,4.6,-,N/A,,Clear,60,2013-08-08 16:15:00
10:35 AM,84.2,42.8,23,30.00,10.0,ESE,8.1,-,N/A,,Clear,110,2013-08-08 16:35:00
10:55 AM,87.8,44.6,22,29.99,10.0,ENE,4.6,-,N/A,,Clear,70,2013-08-08 16:55:00
11:15 AM,87.8,42.8,21,29.99,10.0,Calm,Calm,-,N/A,,Clear,0,2013-08-08 17:15:00
11:35 AM,89.6,39.2,17,29.99,10.0,Calm,Calm,-,N/A,,Clear,0,2013-08-08 17:35:00
11:55 AM,89.6,39.2,17,29.98,10.0,NW,4.6,-,N/A,,Clear,320,2013-08-08 17:55:00
12:15 PM,89.6,37.4,16,29.98,10.0,Calm,Calm,-,N/A,,Clear,0,2013-08-08 18:15:00
12:35 PM,91.4,35.6,14,29.97,10.0,East,5.8,-,N/A,,Clear,80,2013-08-08 18:35:00
12:55 PM,91.4,35.6,14,29.96,10.0,WSW,5.8,-,N/A,,Clear,250,2013-08-08 18:55:00
1:15 PM,91.4,35.6,14,29.96,10.0,North,4.6,-,N/A,,Clear,10,2013-08-08 19:15:00
1:35 PM,93.2,33.8,12,29.96,10.0,WNW,8.1,-,N/A,,Clear,290,2013-08-08 19:35:00
1:55 PM,93.2,33.8,12,29.95,10.0,SSW,4.6,-,N/A,,Clear,210,2013-08-08 19:55:00
2:15 PM,95.0,33.8,12,29.95,10.0,WSW,9.2,16.1,N/A,,Clear,240,2013-08-08 20:15:00
2:35 PM,95.0,32.0,11,29.94,10.0,NW,5.8,-,N/A,,Clear,320,2013-08-08 20:35:00
2:55 PM,96.8,32.0,10,29.93,10.0,WSW,13.8,17.3,N/A,,Clear,240,2013-08-08 20:55:00
3:15 PM,96.8,32.0,10,29.92,10.0,WNW,13.8,19.6,N/A,,Clear,290,2013-08-08 21:15:00
3:35 PM,96.8,32.0,10,29.91,10.0,WSW,17.3,-,N/A,,Clear,250,2013-08-08 21:35:00
3:55 PM,96.8,32.0,10,29.91,10.0,West,11.5,21.9,N/A,,Clear,260,2013-08-08 21:55:00
4:15 PM,96.8,32.0,10,29.91,10.0,West,12.7,21.9,N/A,,Clear,260,2013-08-08 22:15:00
4:35 PM,96.8,32.0,10,29.90,10.0,West,17.3,23.0,N/A,,Clear,270,2013-08-08 22:35:00
5:15 PM,96.8,32.0,10,29.89,10.0,WNW,15.0,18.4,N/A,,Clear,300,2013-08-08 23:15:00
5:35 PM,96.8,32.0,10,29.88,10.0,WSW,15.0,-,N/A,,Clear,240,2013-08-08 23:35:00
5:55 PM,96.8,32.0,10,29.88,10.0,West,17.3,23.0,N/A,,Clear,270,2013-08-08 23:55:00
6:15 PM,96.8,30.2,10,29.88,10.0,WNW,15.0,23.0,N/A,,Clear,290,2013-08-09 00:15:00
6:35 PM,96.8,30.2,10,29.88,10.0,West,16.1,-,N/A,,Clear,260,2013-08-09 00:35:00
6:55 PM,95.0,30.2,10,29.87,10.0,West,12.7,-,N/A,,Clear,270,2013-08-09 00:55:00
7:15 PM,95.0,30.2,10,29.87,10.0,West,16.1,21.9,N/A,,Clear,270,2013-08-09 01:15:00
7:35 PM,93.2,30.2,11,29.87,10.0,WNW,13.8,-,N/A,,Clear,290,2013-08-09 01:35:00
7:55 PM,93.2,30.2,11,29.87,10.0,West,11.5,-,N/A,,Clear,280,2013-08-09 01:55:00
8:15 PM,91.4,28.4,10,29.87,10.0,West,9.2,-,N/A,,Clear,260,2013-08-09 02:15:00
8:35 PM,91.4,28.4,10,29.87,10.0,West,10.4,-,N/A,,Clear,280,2013-08-09 02:35:00
8:55 PM,91.4,26.6,10,29.88,10.0,West,8.1,-,N/A,,Clear,280,2013-08-09 02:55:00
9:15 PM,89.6,26.6,10,29.88,10.0,WNW,3.5,-,N/A,,Clear,300,2013-08-09 03:15:00
9:35 PM,89.6,26.6,10,29.88,10.0,Calm,Calm,-,N/A,,Clear,0,2013-08-09 03:35:00
9:55 PM,87.8,24.8,10,29.89,10.0,Calm,Calm,-,N/A,,Clear,0,2013-08-09 03:55:00
10:15 PM,86.0,24.8,11,29.90,10.0,South,6.9,-,N/A,,Clear,180,2013-08-09 04:15:00
10:35 PM,82.4,24.8,12,29.90,10.0,SSW,3.5,-,N/A,,Clear,210,2013-08-09 04:35:00
10:55 PM,82.4,24.8,12,29.91,10.0,SSW,3.5,-,N/A,,Clear,200,2013-08-09 04:55:00
11:15 PM,80.6,24.8,13,29.91,10.0,South,3.5,-,N/A,,Clear,180,2013-08-09 05:15:00
11:35 PM,80.6,24.8,13,29.91,10.0,SE,4.6,-,N/A,,Clear,130,2013-08-09 05:35:00
11:55 PM,78.8,24.8,14,29.91,10.0,SSE,4.6,-,N/A,,Clear,150,2013-08-09 05:55:00